Location: �clusier
(49.9361°N, 2.7869°E)
Time: 16:07:50
(UTC+00:00)

NOAA 13 - Pass Details

Date: 02 February 2022
Orbit: 842 x 857 km, 98.5° (Epoch: 19 May)

Event Time Altitude Azimuth Distance (km) Brightness Sun altitude
Rises 03:07:20 0° 29° (NNE) 3,429 8.5 -40.4°
Reaches altitude 10° 03:10:55 10° 53° (NE) 2,490 7.8 -39.9°
Maximum altitude 03:13:53 15° 86° (E) 2,176 7.4 -39.4°
Drops below altitude 10° 03:16:51 10° 119° (ESE) 2,486 7.5 -39.0°
Sets 03:20:24 0° 142° (SE) 3,418 8.0 -38.5°
